Location: Cazavet
(43.0017°N, 1.0431°E)
Time: 21:56:22
(UTC+00:00)

ATLAS CENTAUR Rocket - Pass Details

Date: 18 January 2026
Orbit: 686 x 36551 km, 28.1° (Epoch: 9 February)

Event Time Altitude Azimuth Distance (km) Brightness Sun altitude
Exits shadow 04:50:11 22° 211° (SSW) 2,642 4.5 -27.5°
Maximum altitude 04:53:35 29° 174° (S) 3,129 5.1 -26.9°
Drops below altitude 10° 05:14:43 10° 123° (ESE) 10,625 8.7 -23.1°
Sets 05:45:04 0° 118° (ESE) 19,143 10.6 -17.6°
